GEOFB FMNA-FSIA

Flight info

Callsign GEOFB
Flight time 0h 39m
Altitude 38000
Route MIROV UL441 NORSI/N0519F390
Aircraft C750/M-SBDE3FGHRWXY/S

Departure

Time 2026-05-04 18:53
Airport Arrachart Airport (FMNA)

Arrival

Time 2026-05-04 19:32
Airport Seychelles International Airport (FSIA)
Time Latitude Longitude Altitude Speed Heading
2026-05-04 18:52 -12.35281 49.29687 388 ft 20 kts 303°
2026-05-04 18:52 -12.34997 49.29254 369 ft 134 kts 303°
2026-05-04 18:52 -12.34342 49.28277 452 ft 187 kts 308°
2026-05-04 18:53 -12.33408 49.27288 1244 ft 201 kts 322°
2026-05-04 18:53 -12.32046 49.26871 1848 ft 218 kts 11°
2026-05-04 18:53 -12.30636 49.27503 2554 ft 229 kts 43°
2026-05-04 18:53 -12.29510 49.28979 3362 ft 243 kts 65°
2026-05-04 18:54 -12.27484 49.31991 5319 ft 267 kts 50°
2026-05-04 18:54 -12.24714 49.34610 7414 ft 277 kts 49°
2026-05-04 18:54 -12.21913 49.37385 9737 ft 284 kts 48°
2026-05-04 18:54 -12.18922 49.40308 11024 ft 320 kts 46°
2026-05-04 18:55 -12.15453 49.43700 11760 ft 361 kts 45°
2026-05-04 18:55 -12.08105 49.50883 14975 ft 374 kts 45°
2026-05-04 18:55 -12.04305 49.54590 16423 ft 382 kts 46°
2026-05-04 18:56 -12.00486 49.58328 17874 ft 390 kts 46°
2026-05-04 18:56 -11.96517 49.62199 19375 ft 398 kts 46°
2026-05-04 18:56 -11.92451 49.66170 20750 ft 410 kts 45°
2026-05-04 18:56 -11.88271 49.70245 22096 ft 422 kts 45°
2026-05-04 18:57 -11.83973 49.74437 23373 ft 433 kts 45°
2026-05-04 18:57 -11.79566 49.78731 24616 ft 443 kts 44°
2026-05-04 18:57 -11.75044 49.83137 25851 ft 453 kts 44°
2026-05-04 18:57 -11.70452 49.87616 27036 ft 462 kts 44°
2026-05-04 18:58 -11.65808 49.92124 28181 ft 470 kts 44°
2026-05-04 18:58 -11.61043 49.96764 29263 ft 478 kts 44°
2026-05-04 18:58 -11.56180 50.01487 30259 ft 486 kts 44°
2026-05-04 18:58 -11.51263 50.06268 31334 ft 489 kts 44°
2026-05-04 18:59 -11.46372 50.11016 32789 ft 482 kts 43°
2026-05-04 18:59 -11.41526 50.15722 34021 ft 480 kts 43°
2026-05-04 18:59 -11.36713 50.20391 35258 ft 476 kts 43°
2026-05-04 18:59 -11.31930 50.25029 36517 ft 472 kts 43°
2026-05-04 19:00 -11.27183 50.29631 37655 ft 468 kts 43°
2026-05-04 19:00 -11.22470 50.34196 37994 ft 478 kts 43°
2026-05-04 19:00 -11.17598 50.38914 38007 ft 500 kts 43°
2026-05-04 19:00 -11.12386 50.43959 38012 ft 519 kts 43°
2026-05-04 19:01 -11.01850 50.54149 38005 ft 530 kts 43°
2026-05-04 19:01 -10.91127 50.64508 38006 ft 532 kts 43°
2026-05-04 19:02 -10.80407 50.74855 38003 ft 530 kts 43°
2026-05-04 19:02 -10.69709 50.85169 38003 ft 529 kts 43°
2026-05-04 19:03 -10.59103 50.95383 38004 ft 528 kts 43°
2026-05-04 19:03 -10.48444 51.05638 38003 ft 527 kts 43°
2026-05-04 19:04 -10.37810 51.15861 37992 ft 526 kts 43°
2026-05-04 19:04 -10.27199 51.26050 37994 ft 524 kts 44°
2026-05-04 19:05 -10.16674 51.36147 37994 ft 523 kts 44°
2026-05-04 19:05 -10.06092 51.46289 37994 ft 523 kts 44°
2026-05-04 19:06 -9.95504 51.56426 37998 ft 522 kts 44°
2026-05-04 19:06 -9.84952 51.66521 37988 ft 522 kts 44°
2026-05-04 19:07 -9.74381 51.76623 37986 ft 522 kts 44°
2026-05-04 19:07 -9.63880 51.86651 37982 ft 522 kts 44°
2026-05-04 19:08 -9.53309 51.96736 37980 ft 522 kts 44°
2026-05-04 19:08 -9.42749 52.06803 37982 ft 521 kts 44°
2026-05-04 19:09 -9.32187 52.16860 37984 ft 521 kts 44°
2026-05-04 19:09 -9.21643 52.26892 37982 ft 519 kts 44°
2026-05-04 19:10 -9.11196 52.36825 37974 ft 519 kts 44°
2026-05-04 19:10 -9.00697 52.46796 37979 ft 517 kts 44°
2026-05-04 19:11 -8.90218 52.56741 37972 ft 516 kts 44°
2026-05-04 19:11 -8.79817 52.66602 37978 ft 516 kts 44°
2026-05-04 19:12 -8.64118 52.81477 37979 ft 516 kts 44°
2026-05-04 19:13 -8.53642 52.91391 37969 ft 516 kts 44°
2026-05-04 19:13 -8.43181 53.01284 37959 ft 515 kts 44°
2026-05-04 19:14 -8.27016 53.13093 37964 ft 517 kts 29°
2026-05-04 19:14 -8.02371 53.27628 37967 ft 517 kts 31°
2026-05-04 19:15 -7.77526 53.42172 37957 ft 516 kts 31°
2026-05-04 19:15 -7.52865 53.56584 37945 ft 510 kts 31°
2026-05-04 19:16 -7.28256 53.70949 37948 ft 510 kts 31°
2026-05-04 19:16 -7.03849 53.85179 37941 ft 510 kts 31°
2026-05-04 19:17 -6.79212 53.99525 37945 ft 512 kts 31°
2026-05-04 19:17 -6.54553 54.13867 37939 ft 512 kts 31°
2026-05-04 19:18 -6.29875 54.28204 37945 ft 512 kts 31°
2026-05-04 19:18 -6.05178 54.42536 37944 ft 512 kts 31°
2026-05-04 19:19 -5.85601 54.53883 37868 ft 459 kts 31°
2026-05-04 19:19 -5.83005 54.55384 36520 ft 409 kts 31°
2026-05-04 19:19 -5.80603 54.56775 33469 ft 391 kts 31°
2026-05-04 19:19 -5.78201 54.58176 29257 ft 433 kts 31°
2026-05-04 19:20 -5.75430 54.59786 26433 ft 475 kts 30°
2026-05-04 19:20 -5.72583 54.61425 25502 ft 459 kts 30°
2026-05-04 19:20 -5.69990 54.62923 25512 ft 421 kts 30°
2026-05-04 19:20 -5.67416 54.64420 25525 ft 433 kts 30°
2026-05-04 19:21 -5.64833 54.65919 25536 ft 436 kts 30°
2026-05-04 19:21 -5.62195 54.67443 25548 ft 438 kts 30°
2026-05-04 19:21 -5.59551 54.68971 25551 ft 439 kts 30°
2026-05-04 19:21 -5.56902 54.70507 25551 ft 440 kts 31°
2026-05-04 19:22 -5.54248 54.72045 25556 ft 441 kts 30°
2026-05-04 19:22 -5.51593 54.73581 25550 ft 441 kts 30°
2026-05-04 19:22 -5.48920 54.75126 25258 ft 446 kts 30°
2026-05-04 19:22 -5.40277 54.80128 23363 ft 432 kts 30°
2026-05-04 19:23 -5.30180 54.85967 21139 ft 418 kts 30°
2026-05-04 19:23 -5.20252 54.91706 18957 ft 406 kts 30°
2026-05-04 19:23 -5.10587 54.97291 16830 ft 396 kts 30°
2026-05-04 19:23 -5.01173 55.02730 15585 ft 389 kts 30°
2026-05-04 19:24 -4.91886 55.08093 12655 ft 369 kts 29°
2026-05-04 19:24 -4.84194 55.12535 11068 ft 357 kts 29°
2026-05-04 19:24 -4.80111 55.14892 10169 ft 321 kts 29°
2026-05-04 19:24 -4.76419 55.17023 9361 ft 297 kts 30°
2026-05-04 19:25 -4.72874 55.19068 8649 ft 294 kts 30°
2026-05-04 19:25 -4.69366 55.21092 7881 ft 288 kts 30°
2026-05-04 19:25 -4.65959 55.23058 7161 ft 285 kts 30°
2026-05-04 19:25 -4.62563 55.25017 6473 ft 284 kts 30°
2026-05-04 19:26 -4.59205 55.26954 5954 ft 278 kts 30°
2026-05-04 19:26 -4.55813 55.28911 5011 ft 277 kts 30°
2026-05-04 19:26 -4.52328 55.30248 4707 ft 261 kts 12°
2026-05-04 19:26 -4.49056 55.31935 4715 ft 270 kts 38°
2026-05-04 19:27 -4.46754 55.34903 4706 ft 272 kts 64°
2026-05-04 19:27 -4.45923 55.38597 4500 ft 276 kts 90°
2026-05-04 19:27 -4.46531 55.41718 4095 ft 275 kts 112°
2026-05-04 19:27 -4.47434 55.43358 3880 ft 272 kts 126°
2026-05-04 19:28 -4.48715 55.44742 3636 ft 270 kts 140°
2026-05-04 19:28 -4.50274 55.45766 3395 ft 269 kts 153°
2026-05-04 19:28 -4.52048 55.46328 3089 ft 267 kts 174°
2026-05-04 19:28 -4.53896 55.46352 2884 ft 265 kts 181°
2026-05-04 19:29 -4.55714 55.46339 2650 ft 252 kts 180°
2026-05-04 19:29 -4.57380 55.46355 2401 ft 227 kts 180°
2026-05-04 19:29 -4.58851 55.46369 2066 ft 193 kts 180°
2026-05-04 19:29 -4.60105 55.46370 1819 ft 172 kts 181°
2026-05-04 19:30 -4.61288 55.46372 1590 ft 174 kts 179°
2026-05-04 19:30 -4.62479 55.46434 1337 ft 159 kts 168°
2026-05-04 19:30 -4.63405 55.46832 1152 ft 134 kts 148°
2026-05-04 19:30 -4.64077 55.47423 981 ft 126 kts 131°
2026-05-04 19:31 -4.64574 55.48132 828 ft 122 kts 126°
2026-05-04 19:31 -4.65066 55.48812 681 ft 125 kts 126°
2026-05-04 19:31 -4.65574 55.49528 479 ft 126 kts 126°
2026-05-04 19:31 -4.66074 55.50250 294 ft 125 kts 125°
2026-05-04 19:32 -4.66571 55.50954 152 ft 123 kts 126°
2026-05-04 19:32 -4.67059 55.51653 19 ft 119 kts 125°
2026-05-04 19:32 -4.67473 55.52246 6 ft 80 kts 122°
2026-05-04 19:32 -4.67677 55.52533 4 ft 9 kts 122°
2026-05-04 19:33 -4.67727 55.52579 3 ft 14 kts 178°
2026-05-04 19:33 -4.67774 55.52541 4 ft 14 kts 227°
2026-05-04 19:33 -4.67790 55.52498 5 ft 0 kts 213°
2026-05-04 19:33 -4.67797 55.52500 5 ft 0 kts 147°